Huanjing Jianzai 02-02

operational
NORAD ID: 46479 Int'l Des: 2020-067 Owner: ZZWYZ Country: CN
LEOCIRCULARRETROGRADESSO

Über Huanjing Jianzai 02-02

Beschreibung wird geladen...

Live-Position

3D-Globus wird geladen...

Nächste Überflüge

Höhenverlauf

Altitude vs Time

uPlot chart will show altitude changes over time

Zweizeiliger Elementsatz

1 46479U 20067B 26061.19794963 .00001116 00000-0 16722-3 0 9998
2 46479 97.8955 143.0158 0001856 95.5525 264.5896 14.76531583292475
Epoch: 2. März 2026 • Age: 38 hours

Aktueller Status

Höhe 669.3 km
Geschwindigkeit 7.52 km/s
Subsatellitenpunkt -77.63°S, 92.8°W
Startdatum 27. Sept. 2020
Alter 5.4 years
Typ other

Technische Details

Klassifizierung Payload
Masse 510.00 kg
Trockenmasse 510.00 kg
Gesamtmasse 510.00 kg
Länge 1.40 m
Durchmesser 1.00 m
Spannweite 4.00 m
Form Box + 2 Pan
Hersteller DFHZ
Bus-Typ CAST-2000
Phasenstatus In Orbit
Besitzer/Staat ZZWYZ/CN

Große Konstellationen

Loading constellations...